Home > Weather > Sandnes > Past weeks

Flag for Norway Past Weather in Sandnes, Norway — Yesterday and Last 2 Weeks

Now
57 °F

Scattered showers. Broken clouds.


Feels Like: 56 °F
Forecast: 54 / 59 °F
Wind: 7 mph from Southwest

Location: Stavanger / Sola

Current Time: Jul 31, 2016 at 7:42:15 AM

Latest Report: Jul 31, 2016 at 6:50 AM


Visibility: N/A

Pressure: 29.71 "Hg

Humidity: 82%

Dew Point: 52 °F

Location of SandnesLocation

Past Weather in Sandnes — Graph

°F

Sandnes Temperature Yesterday

Maximum temperature yesterday: 63 °F (at 2:50 PM)
Minimum temperature yesterday: 54 °F (at 2:50 AM)
Average temperature yesterday: 58 °F

High & Low Weather Summary for the Past Weeks

 TemperatureHumidityPressure
High79 °F (Jul 20, 3:20 PM)100% (Jul 17, 1:50 AM)30.15 "Hg (Jul 17, 1:50 AM)
Low50 °F (Jul 17, 1:50 AM)53% (Jul 20, 11:50 PM)29.65 "Hg (Jul 27, 7:20 PM)
Average62 °F82%29.95 "Hg
* Reported Jul 16 6:20 AM — Jul 31 6:20 AM, Sandnes, Weather by CustomWeather, © 2016

Note: Actual official high and low records may vary slightly from our data, if they occured in-between our weather recording intervals... More about our weather records

Advertising

Sandnes Weather History for the Previous 24 Hours

Scroll right to see more
 ConditionsComfort  
Time TempWeatherWind HumidityBarometerVisibility
6:20 AM
Sun, Jul 31
57 °FScattered showers. Partly cloudy.5 mph82%29.74 "HgN/A
5:50 AM57 °FScattered showers. Partly cloudy.5 mph82%29.74 "HgN/A
4:50 AM57 °FPartly cloudy.6 mph77%29.74 "HgN/A
3:50 AM54 °FPartly cloudy.5 mph94%29.74 "HgN/A
2:50 AM54 °FPassing clouds.6 mph94%29.74 "HgN/A
2:20 AM54 °FPartly cloudy.6 mph94%29.74 "HgN/A
1:50 AM55 °FScattered showers. Partly cloudy.3 mph88%29.77 "Hg6 mi
12:50 AM55 °FRain showers. Partly cloudy.5 mph94%29.77 "Hg6 mi
12:20 AM55 °FRain showers. Partly cloudy.12 mph88%29.77 "HgN/A
11:50 PM
Sat, Jul 30
57 °FScattered showers. Partly cloudy.7 mph88%29.77 "HgN/A
11:20 PM55 °FScattered showers. Partly cloudy.6 mph94%29.77 "HgN/A
10:50 PM57 °FRain showers. Broken clouds.6 mph82%29.77 "HgN/A
10:20 PM57 °FSprinkles. Broken clouds.8 mph82%29.77 "HgN/A
9:50 PM59 °FScattered showers. Broken clouds.5 mph77%29.77 "HgN/A
9:20 PM55 °FSprinkles. Broken clouds.12 mph88%29.77 "HgN/A
8:50 PM59 °FSprinkles. Scattered clouds.7 mph72%29.77 "HgN/A
8:20 PM59 °FScattered clouds.10 mph72%29.77 "HgN/A
7:50 PM59 °FScattered clouds.12 mph77%29.77 "HgN/A
7:20 PM61 °FBroken clouds.9 mph72%29.77 "HgN/A
6:50 PM61 °FBroken clouds.12 mph72%29.77 "HgN/A
6:20 PM61 °FScattered showers. Broken clouds.9 mph77%29.77 "HgN/A
5:50 PM59 °FScattered showers. Broken clouds.7 mph88%29.77 "HgN/A
5:20 PM61 °FScattered showers. Partly sunny.9 mph72%29.77 "HgN/A
4:50 PM61 °FScattered clouds.9 mph72%29.77 "HgN/A
4:20 PM61 °FBroken clouds.9 mph72%29.77 "HgN/A
3:50 PM61 °FBroken clouds.12 mph72%29.77 "HgN/A
3:20 PM61 °FBroken clouds.13 mph68%29.77 "HgN/A
2:50 PM63 °FBroken clouds.13 mph68%29.77 "HgN/A
2:20 PM61 °FBroken clouds.12 mph72%29.77 "HgN/A
1:50 PM61 °FBroken clouds.10 mph77%29.77 "HgN/A
1:20 PM61 °FScattered showers. Broken clouds.12 mph68%29.77 "HgN/A
12:50 PM61 °FBroken clouds.12 mph77%29.74 "HgN/A
12:20 PM61 °FBroken clouds.10 mph77%29.74 "HgN/A
11:50 AM61 °FBroken clouds.10 mph77%29.74 "HgN/A
11:20 AM59 °FBroken clouds.7 mph82%29.74 "HgN/A
10:50 AM59 °FScattered showers. Broken clouds.12 mph77%29.74 "HgN/A
10:20 AM61 °FBroken clouds.9 mph72%29.74 "HgN/A
9:50 AM61 °FBroken clouds.8 mph72%29.74 "HgN/A
9:20 AM59 °FBroken clouds.6 mph77%29.74 "HgN/A
8:50 AM59 °FBroken clouds.6 mph77%29.74 "HgN/A
8:20 AM55 °FScattered showers. Broken clouds.2 mph94%29.74 "HgN/A
7:50 AM55 °FScattered showers. Partly sunny.3 mph88%29.74 "HgN/A
7:20 AM55 °FBroken clouds.3 mph94%29.74 "HgN/A
Weather by CustomWeather, © 2016

See weather overviewHow to use our weather pages